Regional Weather Roundup
Issued by NWS Newport/Morehead, NC

Current Version | Previous Version | Graphics & Text | Print | Product List | Glossary On
Versions: 1 2 3 4 5 6 7 8 9 10 11 12 13 14 15 16 17 18 19 20 21 22 23 24 25 26 27 28 29 30 31 32 33 34 35 36 37 38 39 40 41 42 43 44 45 46 47 48 49 50
000
ASUS42 KMHX 261312
RWRMHX
WEATHER ROUNDUP FOR EASTERN NORTH CAROLINA
NATIONAL WEATHER SERVICE NEWPORT/MOREHEAD CITY NC
900 AM EDT SUN APR 26 2015

NOTE: "FAIR" INDICATES FEW OR NO CLOUDS BELOW 12,000 FEET
WITH NO SIGNIFICANT WEATHER AND/OR OBSTRUCTIONS TO VISIBILITY

NCZ015>017-031-032-045>047-102-103-261400-
NORTH COAST

CITY           SKY/WX    TMP DP  RH WIND       PRES   REMARKS
EDENTON        DRIZZLE   47  46  93 N5        29.64R
ELIZABETH CITY CLOUDY    48  46  93 N13       29.63R
KITTY HAWK     CLOUDY    49  49  98 N9G18     29.60R
MANTEO         CLOUDY    49  48  95 NE15G23   29.60R

$$

NCZ045>047-081-094-103-104-261400-
CENTRAL COAST

CITY           SKY/WX    TMP DP  RH WIND       PRES   REMARKS
FRISCO         CLOUDY    52  51  97 NE12G17   29.57S
SWANQUARTER      N/A     52 N/A N/A NE12      29.56S

$$

NCZ095-097-098-100-101-261400-
SOUTHERN COAST

CITY           SKY/WX    TMP DP  RH WIND       PRES   REMARKS
BEAUFORT       LGT RAIN  56  55  97 NE8       29.60R
CEDAR ISLAND     N/A     55 N/A N/A N9G17     29.62S
JACKSONVILLE   CLOUDY    55  53  93 NE8       29.60S FOG
PINEY ISLAND   CLOUDY   N/A N/A N/A N8        29.59R
WILMINGTON     CLOUDY    61  59  93 NE9       29.59R FOG


$$

NCZ011>013-027>030-043-044-078>080-089-090>093-098-261400-
COASTAL PLAIN

CITY           SKY/WX    TMP DP  RH WIND       PRES   REMARKS
AHOSKIE        RAIN      46  45  95 N6        29.68R
CLINTON        CLOUDY    49  49 100 N6        29.64S FOG
ELIZABETHTOWN  DRIZZLE   53  53 100 N3        29.62R
GOLDSBORO      LGT RAIN  49  49 100 N5        29.63R FOG
GREENVILLE     CLOUDY    50  48  93 N7        29.68R
HAVELOCK       CLOUDY    55  53  93 NE7       29.61R
KENANSVILLE    CLOUDY    49  49  97 N5        29.63S FOG
KINSTON        LGT RAIN  50  50 100 N8        29.64R
NEW BERN       CLOUDY    54  52  93 N7        29.62R FOG
RICHLANDS      CLOUDY    52  48  87 CALM      29.61S
ROCKY MOUNT    LGT RAIN  49  48  97 N7        29.66R FOG
WASHINGTON     LGT RAIN  48  47  95 NE6       29.64R
WHITEVILLE     CLOUDY    61  59  94 N7        29.59R FOG

$$

AMZ130-135-150-152-154-156-158-170-250-252-270-ANZ085-086-088-633-658-670-261400-
MARINE OBSERVATIONS

STATION/POSITION TIME  TEMP    WIND        PRES    WAVE   SWELL
                       AIR SEA DIR/SP/G            HT/PER HT/PER
                 (UTC) (F)     (DEG/KT/KT) (MB)    (FT/S) (FT/S)
CHESAPEAKE LIGHT 1300   47      40/ 13/ 14 1004.4
64 E VA BEACH    1250   54 59   40/ 17/ 19 1001.4    6/ 6   2/ 8
DUCK             1200   48 54   30/ 21/ 23 1001.2
2 E DUCK         1211      54                N/A     5/ 6
10 NE DUCK       NOT AVBL
OREGON INLET     1200   49 54  360/ 13/ 20 1001.8
HATTERAS CG      1200   55 65   40/ 12/ 16 1000.6
DIAMOND BUOY     1250   61 68   30/ 12/ 14 1000.8    4/ 6   3/ 6
CAPE LOOKOUT     1300   57      20/  9/ 12 1001.8
BEAUFORT LAB     1200   57 63   40/  8/ 11 1000.7
27 SE WRIGHTSVLE 1200   66 72  270/ 16/ 19   N/A
5 SE WRIGHTSVLE  1208   63 65   60/ 12/ 16 1000.8
225 S CAPE HAT   1250   72 70  260/ 17/ 19 1002.7    6/ 6   2/12
41 SE CHARLESTON 1250   71 71  260/ 21/ 25 1002.5    5/ 5

$$


USA.gov is the U.S. government's official web portal to all federal, state and local government web resources and services.